Weather History for KMMU - March, 2012

Change the Weather History Date:

Friday, March 23, 2012

  Actual Average Record
Temperature  
Mean Temperature 62 °F -  
Max Temperature 77 °F 48 °F 80 °F (1938)
Min Temperature 48 °F 28 °F 11 °F (1934)
Degree Days  
Heating Degree Days 2    
Growing Degree Days 12 (Base 50)    
Moisture  
Dew Point 50 °F    
Average Humidity 81    
Maximum Humidity 100    
Minimum Humidity 39    
Precipitation  
Precipitation 0.00 in - - ()
Sea Level Pressure  
Sea Level Pressure 30.07 in    
Wind  
Wind Speed 2 mph (ESE)    
Max Wind Speed 15 mph    
Max Gust Speed 20 mph    
Visibility 5 miles    
Events Fog    
Averages and records for this station are not official NWS values.
T = Trace of Precipitation, MM = Missing Value Source: NWS Daily Summary

Daily Weather History Graph

Daily Weather History Graph

Search for Another Location

Airport or City:

Trip Planner

Search our weather history database for the weather conditions in past years. The results will help you decide how hot, cold, wet, or windy it might be!

Date:

Astronomy

Mar. 23, 2012 Rise Set
Actual Time 6:55 AM EDT 7:13 PM EDT
Civil Twilight 6:27 AM EDT 7:40 PM EDT
Nautical Twilight 5:55 AM EDT 8:13 PM EDT
Astronomical Twilight 5:22 AM EDT 8:46 PM EDT
Moon 7:01 AM EDT (3/23) 8:34 PM EDT (3/23)
Length of Visible Light 13h 12m
Length of Day
12h 18m
New Moon, 1% of the Moon is Illuminated
Mar 23
New Moon
Mar 30
First Quarter
Apr 6
Full
Apr 13
Last Quarter
Apr 21
New

Hourly Weather History & Observations

Time (EDT) Temp. Dew Point Humidity Pressure Visibility Wind Dir Wind Speed Gust Speed Precip Events Conditions
12:15 AM 55.4 °F 55.4 °F 100% 30.09 in 7.0 mi Calm Calm - N/A   Clear
12:35 AM 53.6 °F 53.6 °F 100% 30.09 in 4.0 mi Calm Calm - N/A   Clear
12:55 AM 53.6 °F 53.6 °F 100% 30.08 in 1.2 mi Calm Calm - N/A   Mist
1:15 AM 53.6 °F 53.6 °F 100% 30.08 in 3.0 mi Calm Calm - N/A   Clear
1:35 AM 53.6 °F 53.6 °F 100% 30.08 in 1.8 mi Calm Calm - N/A   Mist
1:55 AM 51.8 °F 51.8 °F 100% 30.07 in 1.0 mi Calm Calm - N/A   Scattered Clouds
2:15 AM 51.8 °F 51.8 °F 100% 30.07 in 5.0 mi Calm Calm - N/A   Clear
2:35 AM 51.8 °F 51.8 °F 100% 30.07 in 1.8 mi Calm Calm - N/A   Scattered Clouds
2:55 AM 50.0 °F 50.0 °F 100% 30.07 in 0.5 mi Calm Calm - N/A Fog Fog
3:15 AM 51.8 °F 51.8 °F 100% 30.06 in 0.2 mi Calm Calm - N/A Fog Fog
3:35 AM 50.0 °F 50.0 °F 100% 30.05 in 0.2 mi Calm Calm - N/A Fog Fog
3:55 AM 50.0 °F 50.0 °F 100% 30.05 in 0.2 mi Calm Calm - N/A Fog Fog
4:15 AM 48.2 °F 48.2 °F 100% 30.05 in 0.2 mi Calm Calm - N/A Fog Fog
4:35 AM 48.2 °F 48.2 °F 100% 30.05 in 0.2 mi Calm Calm - N/A Fog Fog
4:55 AM 48.2 °F 48.2 °F 100% 30.05 in 0.8 mi Calm Calm - N/A   Overcast
5:15 AM 48.2 °F 48.2 °F 100% 30.05 in 0.2 mi Calm Calm - N/A Fog Fog
5:35 AM 50.0 °F 50.0 °F 100% 30.06 in 0.2 mi Calm Calm - N/A Fog Fog
5:55 AM 50.0 °F 50.0 °F 100% 30.06 in 0.5 mi Calm Calm - N/A Fog Fog
6:15 AM 48.2 °F 48.2 °F 100% 30.06 in 1.2 mi Calm Calm - N/A   Overcast
6:35 AM 48.2 °F 48.2 °F 100% 30.07 in 1.8 mi Calm Calm - N/A   Mostly Cloudy
6:45 AM 50.0 °F 48.2 °F 94% 30.07 in 2.0 mi Calm Calm - N/A Fog Patches of Fog
7:45 AM 51.8 °F 51.8 °F 100% 30.09 in 2.0 mi Calm Calm - N/A Fog Patches of Fog
8:45 AM 62.6 °F 59.0 °F 88% 30.11 in 5.0 mi NNE 4.6 mph - N/A   Mostly Cloudy
9:45 AM 69.8 °F 55.4 °F 60% 30.10 in 10.0 mi ENE 9.2 mph 16.1 mph N/A   Mostly Cloudy
10:45 AM 75.2 °F 55.4 °F 50% 30.11 in 10.0 mi East 9.2 mph - N/A   Mostly Cloudy
11:45 AM 75.2 °F 55.4 °F 50% 30.10 in 10.0 mi ENE 5.8 mph 15.0 mph N/A   Mostly Cloudy
12:45 PM 77.0 °F 53.6 °F 44% 30.09 in 10.0 mi East 9.2 mph 15.0 mph N/A   Mostly Cloudy
1:45 PM 75.2 °F 53.6 °F 47% 30.07 in 10.0 mi East 8.1 mph - N/A   Overcast
2:45 PM 73.4 °F 53.6 °F 50% 30.05 in 10.0 mi SE 11.5 mph - N/A   Overcast
3:45 PM 71.6 °F 51.8 °F 50% 30.06 in 10.0 mi South 15.0 mph 19.6 mph N/A   Overcast
4:45 PM 68.0 °F 44.6 °F 43% 30.06 in 10.0 mi South 8.1 mph - N/A   Overcast
5:45 PM 64.4 °F 41.0 °F 42% 30.06 in 10.0 mi SSE 9.2 mph - N/A   Overcast
6:45 PM 62.6 °F 37.4 °F 39% 30.07 in 10.0 mi South 6.9 mph - N/A   Mostly Cloudy
7:45 PM 60.8 °F 39.2 °F 45% 30.06 in 10.0 mi South 3.5 mph - N/A   Mostly Cloudy
8:45 PM 57.2 °F 41.0 °F 55% 30.07 in 10.0 mi Calm Calm - N/A   Mostly Cloudy
9:45 PM 53.6 °F 42.8 °F 67% 30.07 in 10.0 mi Calm Calm - N/A   Mostly Cloudy
10:55 PM 53.6 °F 44.6 °F 72% 30.05 in 10.0 mi Calm Calm - N/A   Clear
11:15 PM 51.8 °F 46.4 °F 82% 30.05 in 10.0 mi Calm Calm - N/A   Clear
11:35 PM 51.8 °F 46.4 °F 82% 30.05 in 10.0 mi Calm Calm - N/A   Clear
11:55 PM 51.8 °F 46.4 °F 82% 30.05 in 10.0 mi Calm Calm - N/A   Clear